Nellis AFB, NV

4:30 AM PDT on May 25, 2018 (GMT -0700)
Nellis Air Force Base

Weather History for KLSV - January, 2014

Change the Weather History Date:

Thursday, January 30, 2014

  Actual Average Record
Temperature  
Mean Temperature 58 °F -  
Max Temperature 71 °F 58 °F 71 °F (2003)
Min Temperature 44 °F 36 °F 29 °F (2012)
Degree Days  
Heating Degree Days 8    
Growing Degree Days 8 (Base 50)    
Moisture  
Dew Point 32 °F    
Average Humidity 38    
Maximum Humidity 52    
Minimum Humidity 24    
Precipitation  
Precipitation 0.00 in - - ()
Sea Level Pressure  
Sea Level Pressure 29.66 in    
Wind  
Wind Speed 8 mph (SSW)    
Max Wind Speed 25 mph    
Max Gust Speed 37 mph    
Visibility 10 miles    
Events      
Averages and records for this station are not official NWS values.
T = Trace of Precipitation, MM = Missing Value Source: NWS Daily Summary

Daily Weather History Graph

Daily Weather History Graph

Search for Another Location

Airport or City:

Astronomy

Jan. 30, 2014 Rise Set
Actual Time 6:42 AM PST 5:04 PM PST
Civil Twilight 6:15 AM PST 5:31 PM PST
Nautical Twilight 5:44 AM PST 6:02 PM PST
Astronomical Twilight 5:14 AM PST 6:32 PM PST
Moon 6:13 AM PST (1/30) 5:19 PM PST (1/30)
Length of Visible Light 11h 16m
Length of Day
10h 22m
Waning Crescent, 0% of the Moon is Illuminated
Jan 30
Waning Crescent
Jan 30
New
Feb 6
First Quarter
Feb 14
Full
Feb 22
Last Quarter

Hourly Weather History & Observations

Time (PST) Temp. Windchill Dew Point Humidity Pressure Visibility Wind Dir Wind Speed Gust Speed Precip Events Conditions
12:58 AM 51.6 °F - 23.9 °F 34% 29.79 in 10.0 mi ENE 4.6 mph - N/A   Clear
1:58 AM 48.2 °F - 24.6 °F 40% 29.78 in 10.0 mi Calm Calm - N/A   Clear
2:58 AM 46.0 °F - 24.4 °F 43% 29.75 in 10.0 mi Calm Calm - N/A   Clear
3:58 AM 45.9 °F - 24.8 °F 44% 29.73 in 10.0 mi West 2.3 mph - N/A   Clear
4:58 AM 44.4 °F - 25.5 °F 48% 29.73 in 10.0 mi NE 2.3 mph - N/A   Clear
5:58 AM 45.1 °F 42.8 °F 25.7 °F 47% 29.71 in 10.0 mi East 4.6 mph - N/A   Clear
6:58 AM 44.8 °F - 26.1 °F 48% 29.70 in 10.0 mi South 1.2 mph - N/A   Clear
7:58 AM 46.2 °F 42.7 °F 25.9 °F 45% 29.69 in 10.0 mi Variable 6.9 mph - N/A   Clear
8:58 AM 51.8 °F - 27.3 °F 39% 29.70 in 10.0 mi Variable 3.5 mph - N/A   Clear
9:58 AM 60.8 °F - 29.5 °F 31% 29.68 in 10.0 mi West 1.2 mph - N/A   Clear
10:58 AM 71.4 °F - 33.3 °F 25% 29.64 in 10.0 mi South 16.1 mph - N/A   Partly Cloudy
11:58 AM 71.4 °F - 32.2 °F 24% 29.62 in 10.0 mi SW 25.3 mph 36.8 mph N/A   Scattered Clouds
12:58 PM 70.5 °F - 32.5 °F 25% 29.60 in 10.0 mi SSW 19.6 mph 27.6 mph N/A   Overcast
1:58 PM 70.2 °F - 35.2 °F 28% 29.57 in 10.0 mi South 20.7 mph 31.1 mph N/A   Overcast
2:58 PM 70.5 °F - 36.3 °F 29% 29.57 in 10.0 mi South 13.8 mph - N/A   Partly Cloudy
3:39 PM 69.8 °F - 37.4 °F 31% 29.61 in 10.0 mi SW 12.7 mph - N/A   Partly Cloudy
3:52 PM 69.8 °F - 37.4 °F 31% 29.60 in 10.0 mi WSW 25.3 mph 29.9 mph N/A   Clear
3:58 PM 70.0 °F - 36.3 °F 29% 29.56 in 10.0 mi SW 20.7 mph 29.9 mph N/A   Clear
4:58 PM 68.0 °F - 35.1 °F 30% 29.60 in 10.0 mi SW 12.7 mph - N/A   Clear
5:58 PM 65.1 °F - 37.2 °F 36% 29.59 in 10.0 mi SW 23.0 mph - N/A   Clear
6:58 PM 63.7 °F - 37.9 °F 39% 29.62 in 10.0 mi South 10.4 mph - N/A   Mostly Cloudy
7:58 PM 63.0 °F - 37.9 °F 40% 29.64 in 10.0 mi WSW 13.8 mph - N/A   Scattered Clouds
8:02 PM 62.6 °F - 37.4 °F 39% 29.66 in 10.0 mi West 12.7 mph - N/A   Scattered Clouds
8:58 PM 57.9 °F - 34.7 °F 42% 29.67 in 10.0 mi NW 10.4 mph - N/A   Mostly Cloudy
9:58 PM 56.8 °F - 34.7 °F 43% 29.68 in 10.0 mi ESE 8.1 mph - N/A   Clear
10:58 PM 53.6 °F - 35.6 °F 51% 29.68 in 10.0 mi East 9.2 mph - N/A   Clear
11:58 PM 52.0 °F - 34.7 °F 52% 29.68 in 10.0 mi ENE 8.1 mph - N/A   Scattered Clouds